Hourly Data Report for May 13, 2017

TORONTO CITY
ONTARIO

43°40'00.000" N
79°24'00.000" W
112.50 m
6158355
71508
XTO

Download Data

Hourly Data (May 2017)
Hourly Data Report for May 13, 2017
TIME
LST
Temp Definition
°C
Dew Point Definition
°C
Rel Hum Definition
%
Precip. Amount Definition
mm

Wind Dir Definition
10's deg

Wind Spd Definition
km/h
Visibility Definition
km
Stn Press Definition
kPa
Hmdx Definition


Wind Chill Definition


Weather Definition


00:00 12.8 6.2 65 0.0 LegendMM LegendMM   99.87     LegendNANA
01:00 11.4 4.4 62 0.0 LegendMM LegendMM   99.84     LegendNANA
02:00 11.3 4.8 64 0.0 LegendMM LegendMM   99.80     LegendNANA
03:00 11.5 4.7 63 0.0 LegendMM LegendMM   99.78     LegendNANA
04:00 11.2 4.3 63 0.0 LegendMM LegendMM   99.77     LegendNANA
05:00 10.5 4.5 66 0.0 LegendMM LegendMM   99.77     LegendNANA
06:00 10.8 5.1 68 0.0 LegendMM LegendMM   99.80     LegendNANA
07:00 11.2 4.7 64 0.0 LegendMM LegendMM   99.80     LegendNANA
08:00 11.9 5.2 63 0.0 LegendMM LegendMM   99.80     LegendNANA
09:00 12.9 5.5 61 0.0 LegendMM LegendMM   99.81     LegendNANA
10:00 13.8 6.9 63 0.0 LegendMM LegendMM   99.77     LegendNANA
11:00 14.3 6.7 60 0.0 LegendMM LegendMM   99.75     LegendNANA
12:00 14.2 6.9 61 0.0 LegendMM LegendMM   99.72     LegendNANA
13:00 14.1 6.6 61 0.0 LegendMM LegendMM   99.71     LegendNANA
14:00 15.5 5.9 53 0.0 LegendMM LegendMM   99.65     LegendNANA
15:00 15.4 5.7 53 0.0 LegendMM LegendMM   99.59     LegendNANA
16:00 15.3 6.1 54 0.0 LegendMM LegendMM   99.56     LegendNANA
17:00 13.3 6.3 62 0.0 LegendMM LegendMM   99.62     LegendNANA
18:00 11.9 8.0 77 0.6 LegendMM LegendMM   99.55     LegendNANA
19:00 11.6 7.5 76 0.0 LegendMM LegendMM   99.57     LegendNANA
20:00 10.6 7.3 80 0.0 LegendMM LegendMM   99.56     LegendNANA
21:00 10.4 7.4 81 0.0 LegendMM LegendMM   99.55     LegendNANA
22:00 10.5 7.3 81 0.0 LegendMM LegendMM   99.50     LegendNANA
23:00 10.3 7.0 80 0.0 LegendMM LegendMM   99.47     LegendNANA

Notes on Data Quality.

Legend

  • E = Estimated
  • M = Missing
  • NA = Not Available*
  • [empty] = Indicates an unobserved value
Date modified: